Location: Haieshausen
(51.8387°N, 9.9720°E)
Time: 04:25:27
(UTC+00:00)

Cosmos 1656 - Pass Details

Date: 14 July 2020
Orbit: 800 x 848 km, 71.1° (Epoch: 10 August)

Event Time Altitude Azimuth Distance (km) Brightness Sun altitude
Rises 00:43:20 0° 328° (NNW) 3,320 7.4 -14.6°
Reaches altitude 10° 00:45:45 10° 327° (NNW) 2,386 6.6 -14.5°
Maximum altitude 00:51:11 74° 244° (WSW) 836 3.5 -14.2°
Enters shadow 00:56:26 11° 160° (SSE) 2,318 5.6 -13.9°
